Location: Claremont
(33.9858°S, 18.4575°E)
Time: 11:40:33
(UTC+00:00)

Cosmos 1703 Rocket - Pass Details

Date: 03 March 2021
Orbit: 604 x 634 km, 82.5° (Epoch: 09 April)

Event Time Altitude Azimuth Distance (km) Brightness Sun altitude
Exits shadow 19:14:31 37° 340° (NNW) 959 4.4 -23.5°
Maximum altitude 19:16:11 74° 263° (W) 640 3.6 -23.8°
Drops below altitude 10° 19:20:35 10° 177° (S) 1,985 6.4 -24.6°
Sets 19:22:50 0° 175° (S) 2,900 7.3 -25.0°
